| time (UTC) | temp C | wind direction | speed KPH | gust KPH | rain 1hr cm | rain 24hr cm | rain mn cm | humidity % | barometer mb |
| 20260507110524 | 11 | 295 | 4.8 | 11.3 | 0.00 | 0.00 | 0.00 | 77 | 1020.6 |
| 20260507110045 | 11 | 343 | 4.8 | 12.9 | 0.00 | 0.00 | 0.00 | 77 | 1020.5 |
| 20260507105525 | 11 | 320 | 6.4 | 12.9 | 0.00 | 0.00 | 0.00 | 77 | 1020.6 |
| 20260507105023 | 11 | 0 | 4.8 | 11.3 | 0.00 | 0.00 | 0.00 | 77 | 1020.7 |
| 20260507104541 | 11 | 281 | 4.8 | 12.9 | 0.00 | 0.00 | 0.00 | 77 | 1020.7 |
| 20260507104026 | 11 | 337 | 6.4 | 14.5 | 0.00 | 0.00 | 0.00 | 77 | 1020.7 |
| 20260507103526 | 11 | 323 | 3.2 | 14.5 | 0.00 | 0.00 | 0.00 | 77 | 1020.8 |
| 20260507103042 | 11 | 325 | 6.4 | 11.3 | 0.00 | 0.00 | 0.00 | 77 | 1020.8 |
| 20260507102524 | 11 | 338 | 3.2 | 9.7 | 0.00 | 0.00 | 0.00 | 78 | 1020.8 |
| 20260507102024 | 11 | 316 | 3.2 | 9.7 | 0.00 | 0.00 | 0.00 | 77 | 1020.8 |
| 20260507101538 | 11 | 11 | 4.8 | 9.7 | 0.00 | 0.00 | 0.00 | 77 | 1020.9 |
| 20260507101025 | 11 | 335 | 1.6 | 9.7 | 0.00 | 0.00 | 0.00 | 78 | 1020.8 |
| 20260507100524 | 11 | 339 | 4.8 | 11.3 | 0.00 | 0.00 | 0.00 | 78 | 1020.9 |
| 20260507100045 | 11 | 39 | 1.6 | 12.9 | 0.00 | 0.00 | 0.00 | 78 | 1020.9 |
| 20260507095524 | 11 | 309 | 6.4 | 12.9 | 0.00 | 0.00 | 0.00 | 78 | 1021.0 |
| 20260507095029 | 11 | 348 | 4.8 | 9.7 | 0.00 | 0.00 | 0.00 | 78 | 1021.0 |
| 20260507094543 | 11 | 313 | 4.8 | 9.7 | 0.00 | 0.00 | 0.00 | 78 | 1021.0 |
| 20260507094027 | 11 | 307 | 3.2 | 9.7 | 0.00 | 0.00 | 0.00 | 78 | 1021.0 |
| 20260507093524 | 11 | 326 | 1.6 | 9.7 | 0.00 | 0.00 | 0.00 | 79 | 1021.1 |
| 20260507093045 | 11 | 292 | 1.6 | 8.0 | 0.00 | 0.00 | 0.00 | 79 | 1021.1 |
| 20260507092526 | 11 | 328 | 1.6 | 9.7 | 0.00 | 0.00 | 0.00 | 78 | 1021.1 |
| 20260507092023 | 11 | 273 | 1.6 | 9.7 | 0.00 | 0.00 | 0.00 | 78 | 1021.1 |
| 20260507091541 | 11 | 342 | 4.8 | 14.5 | 0.00 | 0.00 | 0.00 | 78 | 1021.1 |
| 20260507091024 | 11 | 340 | 4.8 | 14.5 | 0.00 | 0.00 | 0.00 | 78 | 1021.3 |
| 20260507090525 | 11 | 314 | 6.4 | 14.5 | 0.00 | 0.00 | 0.00 | 78 | 1021.2 |
| 20260507090042 | 11 | 328 | 4.8 | 12.9 | 0.00 | 0.00 | 0.00 | 78 | 1021.2 |
| 20260507085524 | 12 | 311 | 3.2 | 12.9 | 0.00 | 0.00 | 0.00 | 77 | 1021.1 |
| 20260507085024 | 12 | 319 | 4.8 | 11.3 | 0.00 | 0.00 | 0.00 | 77 | 1021.3 |
| 20260507084544 | 12 | 329 | 3.2 | 11.3 | 0.00 | 0.00 | 0.00 | 77 | 1021.2 |
| 20260507084028 | 12 | 314 | 4.8 | 11.3 | 0.00 | 0.00 | 0.00 | 77 | 1021.2 |
| 20260507083526 | 12 | 310 | 1.6 | 11.3 | 0.00 | 0.00 | 0.00 | 77 | 1021.3 |
| 20260507083044 | 12 | 221 | 3.2 | 14.5 | 0.00 | 0.00 | 0.00 | 77 | 1021.3 |
| 20260507082524 | 12 | 115 | 6.4 | 14.5 | 0.00 | 0.00 | 0.00 | 77 | 1021.3 |
| 20260507082023 | 12 | 333 | 3.2 | 12.9 | 0.00 | 0.00 | 0.00 | 77 | 1021.3 |
| 20260507081541 | 12 | 0 | 4.8 | 12.9 | 0.00 | 0.00 | 0.00 | 77 | 1021.3 |
| 20260507081023 | 12 | 0 | 1.6 | 11.3 | 0.00 | 0.00 | 0.00 | 77 | 1021.2 |
| 20260507080528 | 12 | 243 | 1.6 | 11.3 | 0.00 | 0.00 | 0.00 | 78 | 1021.2 |
| 20260507080042 | 12 | 339 | 3.2 | 11.3 | 0.00 | 0.00 | 0.00 | 78 | 1021.2 |
| 20260507075524 | 12 | 0 | 0.0 | 8.0 | 0.00 | 0.00 | 0.00 | 79 | 1021.3 |
| 20260507075024 | 12 | 319 | 0.0 | 8.0 | 0.00 | 0.00 | 0.00 | 79 | 1021.2 |
| 20260507074542 | 12 | 288 | 1.6 | 12.9 | 0.00 | 0.00 | 0.00 | 79 | 1021.2 |
| 20260507074024 | 12 | 356 | 4.8 | 12.9 | 0.00 | 0.00 | 0.00 | 79 | 1021.3 |
| 20260507073525 | 12 | 301 | 4.8 | 11.3 | 0.00 | 0.00 | 0.00 | 79 | 1021.2 |
| 20260507073045 | 12 | 305 | 3.2 | 11.3 | 0.00 | 0.00 | 0.00 | 79 | 1021.2 |
| 20260507072524 | 12 | 4 | 3.2 | 14.5 | 0.00 | 0.00 | 0.00 | 79 | 1021.2 |
| 20260507072024 | 12 | 297 | 6.4 | 14.5 | 0.00 | 0.00 | 0.00 | 79 | 1021.1 |
| 20260507071543 | 12 | 336 | 4.8 | 11.3 | 0.00 | 0.00 | 0.00 | 79 | 1021.0 |
| 20260507071024 | 12 | 340 | 1.6 | 9.7 | 0.00 | 0.00 | 0.00 | 79 | 1021.0 |
| 20260507070524 | 12 | 300 | 4.8 | 12.9 | 0.00 | 0.00 | 0.00 | 79 | 1021.0 |
| 20260507070048 | 12 | 0 | 3.2 | 12.9 | 0.00 | 0.00 | 0.00 | 79 | 1021.0 |
| 20260507065523 | 12 | 340 | 3.2 | 11.3 | 0.00 | 0.00 | 0.00 | 79 | 1021.0 |
| 20260507065024 | 12 | 299 | 0.0 | 11.3 | 0.00 | 0.00 | 0.00 | 79 | 1021.0 |
| 20260507064550 | 12 | 312 | 4.8 | 12.9 | 0.00 | 0.00 | 0.00 | 79 | 1021.1 |
| 20260507064024 | 12 | 319 | 4.8 | 12.9 | 0.00 | 0.00 | 0.00 | 79 | 1021.0 |
| 20260507063525 | 12 | 8 | 4.8 | 11.3 | 0.00 | 0.00 | 0.00 | 79 | 1021.0 |
| 20260507063041 | 12 | 236 | 0.0 | 11.3 | 0.00 | 0.00 | 0.00 | 79 | 1021.0 |
| 20260507062524 | 12 | 309 | 1.6 | 14.5 | 0.00 | 0.00 | 0.00 | 79 | 1021.2 |
| 20260507062024 | 12 | 299 | 4.8 | 14.5 | 0.00 | 0.00 | 0.00 | 79 | 1021.1 |
| 20260507061537 | 12 | 3 | 6.4 | 14.5 | 0.00 | 0.00 | 0.00 | 79 | 1021.2 |
| 20260507061023 | 12 | 351 | 0.0 | 11.3 | 0.00 | 0.00 | 0.00 | 80 | 1021.2 |
| 20260507060524 | 12 | 252 | 3.2 | 11.3 | 0.00 | 0.00 | 0.00 | 80 | 1021.1 |
| 20260507060045 | 12 | 333 | 3.2 | 14.5 | 0.00 | 0.00 | 0.00 | 79 | 1021.2 |
| 20260507055524 | 12 | 298 | 6.4 | 14.5 | 0.00 | 0.00 | 0.00 | 79 | 1021.1 |
| 20260507055024 | 12 | 309 | 4.8 | 11.3 | 0.00 | 0.00 | 0.00 | 80 | 1021.2 |
| 20260507054542 | 12 | 304 | 4.8 | 16.1 | 0.00 | 0.00 | 0.00 | 80 | 1021.1 |
| 20260507054027 | 12 | 318 | 6.4 | 16.1 | 0.00 | 0.00 | 0.00 | 79 | 1021.2 |
| 20260507053524 | 12 | 313 | 6.4 | 16.1 | 0.00 | 0.00 | 0.00 | 79 | 1021.1 |
| 20260507053044 | 12 | 316 | 6.4 | 16.1 | 0.00 | 0.00 | 0.00 | 79 | 1021.1 |
| 20260507052523 | 12 | 300 | 8.0 | 14.5 | 0.00 | 0.00 | 0.00 | 78 | 1021.1 |
| 20260507052023 | 12 | 273 | 8.0 | 17.7 | 0.00 | 0.00 | 0.00 | 78 | 1021.1 |
| 20260507051541 | 12 | 315 | 6.4 | 17.7 | 0.00 | 0.00 | 0.00 | 78 | 1021.1 |
| 20260507051025 | 12 | 23 | 9.7 | 17.7 | 0.00 | 0.00 | 0.00 | 78 | 1021.2 |
| 20260507050524 | 12 | 300 | 6.4 | 17.7 | 0.00 | 0.00 | 0.00 | 77 | 1021.2 |
| 20260507050041 | 12 | 314 | 6.4 | 16.1 | 0.00 | 0.00 | 0.00 | 77 | 1021.3 |
| 20260507045525 | 13 | 324 | 6.4 | 17.7 | 0.00 | 0.00 | 0.00 | 77 | 1021.2 |
| 20260507045024 | 13 | 356 | 9.7 | 17.7 | 0.00 | 0.00 | 0.00 | 77 | 1021.2 |
| 20260507044543 | 13 | 316 | 8.0 | 20.9 | 0.00 | 0.00 | 0.00 | 77 | 1021.3 |
| 20260507044023 | 13 | 0 | 9.7 | 20.9 | 0.00 | 0.00 | 0.00 | 77 | 1021.2 |
| 20260507043524 | 13 | 327 | 9.7 | 20.9 | 0.00 | 0.00 | 0.00 | 77 | 1021.3 |
| 20260507043042 | 13 | 30 | 9.7 | 20.9 | 0.00 | 0.00 | 0.00 | 77 | 1021.1 |
| 20260507042525 | 13 | 321 | 8.0 | 20.9 | 0.00 | 0.00 | 0.00 | 77 | 1021.1 |
| 20260507042025 | 13 | 312 | 8.0 | 14.5 | 0.00 | 0.00 | 0.00 | 76 | 1021.1 |
| 20260507041551 | 13 | 8 | 8.0 | 16.1 | 0.00 | 0.00 | 0.00 | 77 | 1021.0 |
| 20260507041023 | 13 | 343 | 8.0 | 16.1 | 0.00 | 0.00 | 0.00 | 77 | 1021.0 |
| 20260507040527 | 13 | 300 | 8.0 | 22.5 | 0.00 | 0.00 | 0.00 | 76 | 1021.0 |
| 20260507040042 | 13 | 325 | 4.8 | 22.5 | 0.00 | 0.00 | 0.00 | 77 | 1020.9 |
| 20260507035524 | 13 | 301 | 9.7 | 22.5 | 0.00 | 0.00 | 0.00 | 76 | 1020.9 |
| 20260507035024 | 13 | 317 | 8.0 | 16.1 | 0.00 | 0.00 | 0.00 | 76 | 1020.8 |
| 20260507034546 | 14 | 333 | 6.4 | 11.3 | 0.00 | 0.00 | 0.00 | 76 | 1020.6 |
| 20260507034023 | 14 | 321 | 6.4 | 19.3 | 0.00 | 0.00 | 0.00 | 77 | 1020.6 |
| 20260507033526 | 14 | 288 | 9.7 | 19.3 | 0.00 | 0.00 | 0.00 | 76 | 1020.5 |
| 20260507033045 | 14 | 308 | 9.7 | 17.7 | 0.00 | 0.00 | 0.00 | 76 | 1020.4 |
| 20260507032524 | 14 | 310 | 9.7 | 16.1 | 0.00 | 0.00 | 0.00 | 76 | 1020.5 |
| 20260507032023 | 14 | 310 | 8.0 | 17.7 | 0.00 | 0.00 | 0.00 | 76 | 1020.3 |
| 20260507031540 | 14 | 323 | 8.0 | 17.7 | 0.00 | 0.00 | 0.00 | 76 | 1020.3 |
| 20260507031024 | 15 | 330 | 9.7 | 16.1 | 0.00 | 0.00 | 0.00 | 76 | 1020.2 |
| 20260507030526 | 15 | 316 | 8.0 | 14.5 | 0.00 | 0.00 | 0.00 | 76 | 1020.1 |
| 20260507030042 | 15 | 314 | 3.2 | 12.9 | 0.00 | 0.00 | 0.00 | 76 | 1020.0 |
| 20260507025523 | 15 | 23 | 3.2 | 14.5 | 0.00 | 0.00 | 0.00 | 76 | 1020.0 |
| 20260507025023 | 15 | 335 | 4.8 | 14.5 | 0.00 | 0.00 | 0.00 | 76 | 1020.0 |
| 20260507024541 | 15 | 356 | 6.4 | 14.5 | 0.00 | 0.00 | 0.00 | 76 | 1019.9 |
| 20260507024024 | 15 | 321 | 1.6 | 12.9 | 0.00 | 0.00 | 0.00 | 76 | 1019.9 |
| 20260507023524 | 15 | 309 | 8.0 | 12.9 | 0.00 | 0.00 | 0.00 | 75 | 1019.9 |
| 20260507023037 | 15 | 333 | 6.4 | 16.1 | 0.00 | 0.00 | 0.00 | 74 | 1019.9 |
| 20260507022524 | 16 | 306 | 8.0 | 16.1 | 0.00 | 0.00 | 0.00 | 73 | 1019.9 |
| 20260507022024 | 16 | 345 | 4.8 | 11.3 | 0.00 | 0.00 | 0.00 | 73 | 1019.9 |
| 20260507021550 | 16 | 338 | 4.8 | 14.5 | 0.00 | 0.00 | 0.00 | 72 | 1019.8 |
| 20260507021024 | 16 | 315 | 3.2 | 16.1 | 0.00 | 0.00 | 0.00 | 72 | 1019.9 |
| 20260507020525 | 16 | 311 | 8.0 | 16.1 | 0.00 | 0.00 | 0.00 | 72 | 1019.8 |
| 20260507020042 | 17 | 350 | 6.4 | 16.1 | 0.00 | 0.00 | 0.00 | 71 | 1019.8 |
| 20260507015523 | 16 | 349 | 6.4 | 17.7 | 0.00 | 0.00 | 0.00 | 71 | 1020.0 |
| 20260507015026 | 17 | 359 | 9.7 | 19.3 | 0.00 | 0.00 | 0.00 | 71 | 1020.0 |
| 20260507014554 | 17 | 286 | 4.8 | 19.3 | 0.00 | 0.00 | 0.00 | 71 | 1019.9 |
| 20260507014026 | 17 | 321 | 9.7 | 19.3 | 0.00 | 0.00 | 0.00 | 70 | 1020.0 |
| 20260507013525 | 17 | 354 | 6.4 | 11.3 | 0.00 | 0.00 | 0.00 | 70 | 1020.0 |
| 20260507013053 | 17 | 70 | 4.8 | 19.3 | 0.00 | 0.00 | 0.00 | 71 | 1020.0 |
| 20260507012524 | 17 | 15 | 9.7 | 19.3 | 0.00 | 0.00 | 0.00 | 70 | 1020.0 |
| 20260507012027 | 17 | 74 | 4.8 | 14.5 | 0.00 | 0.00 | 0.00 | 70 | 1019.9 |
| 20260507011541 | 17 | 325 | 8.0 | 19.3 | 0.00 | 0.00 | 0.00 | 70 | 1019.9 |
| 20260507011025 | 17 | 23 | 6.4 | 19.3 | 0.00 | 0.00 | 0.00 | 70 | 1019.9 |
| 20260507010525 | 18 | 347 | 8.0 | 16.1 | 0.00 | 0.00 | 0.00 | 69 | 1019.9 |
| 20260507010045 | 18 | 290 | 6.4 | 14.5 | 0.00 | 0.00 | 0.00 | 71 | 1019.8 |
| 20260507005524 | 18 | 320 | 6.4 | 12.9 | 0.00 | 0.00 | 0.00 | 71 | 1019.8 |
| 20260507005024 | 18 | 302 | 6.4 | 12.9 | 0.00 | 0.00 | 0.00 | 72 | 1019.8 |
| 20260507004543 | 18 | 336 | 4.8 | 12.9 | 0.00 | 0.00 | 0.00 | 73 | 1019.8 |
| 20260507004024 | 18 | 304 | 3.2 | 9.7 | 0.00 | 0.00 | 0.00 | 72 | 1019.8 |
| 20260507003524 | 18 | 77 | 1.6 | 14.5 | 0.00 | 0.00 | 0.00 | 73 | 1019.8 |
| 20260507003042 | 18 | 65 | 1.6 | 14.5 | 0.00 | 0.00 | 0.00 | 72 | 1019.8 |
| 20260507002523 | 18 | 351 | 4.8 | 14.5 | 0.00 | 0.00 | 0.00 | 72 | 1019.7 |
| 20260507002023 | 18 | 346 | 3.2 | 12.9 | 0.00 | 0.00 | 0.00 | 72 | 1019.8 |
| 20260507001555 | 18 | 74 | 3.2 | 12.9 | 0.00 | 0.00 | 0.00 | 71 | 1019.8 |
| 20260507001023 | 18 | 39 | 4.8 | 11.3 | 0.00 | 0.00 | 0.00 | 71 | 1019.7 |
| 20260507000528 | 18 | 329 | 3.2 | 11.3 | 0.00 | 0.00 | 0.00 | 71 | 1019.7 |
| 20260507000040 | 18 | 13 | 6.4 | 11.3 | 0.00 | 0.00 | 0.00 | 70 | 1019.7 |
| 20260506235526 | 18 | 337 | 1.6 | 9.7 | 0.00 | 0.00 | 0.00 | 70 | 1019.7 |
| 20260506235026 | 18 | 86 | 6.4 | 9.7 | 0.00 | 0.00 | 0.00 | 69 | 1019.7 |
| 20260506234543 | 19 | 44 | 3.2 | 8.0 | 0.00 | 0.00 | 0.00 | 68 | 1019.7 |
| 20260506234025 | 18 | 281 | 4.8 | 9.7 | 0.00 | 0.00 | 0.00 | 69 | 1019.6 |
| 20260506233524 | 18 | 333 | 1.6 | 9.7 | 0.00 | 0.00 | 0.00 | 68 | 1019.8 |
| 20260506233047 | 18 | 292 | 3.2 | 9.7 | 0.00 | 0.00 | 0.00 | 68 | 1019.7 |
| 20260506232523 | 18 | 304 | 4.8 | 9.7 | 0.00 | 0.00 | 0.00 | 68 | 1019.8 |
| 20260506232023 | 18 | 349 | 4.8 | 9.7 | 0.00 | 0.00 | 0.00 | 69 | 1019.8 |
| 20260506231547 | 19 | 314 | 0.0 | 6.4 | 0.00 | 0.00 | 0.00 | 67 | 1019.8 |
| 20260506231024 | 19 | 340 | 1.6 | 6.4 | 0.00 | 0.00 | 0.00 | 65 | 1019.9 |
| 20260506230523 | 20 | 324 | 1.6 | 4.8 | 0.00 | 0.00 | 0.00 | 65 | 1019.9 |
| 20260506230043 | 19 | 0 | 0.0 | 8.0 | 0.00 | 0.00 | 0.00 | 66 | 1020.0 |
| 20260506225524 | 19 | 349 | 1.6 | 8.0 | 0.00 | 0.00 | 0.00 | 66 | 1020.0 |
| 20260506225027 | 19 | 197 | 1.6 | 8.0 | 0.00 | 0.00 | 0.00 | 66 | 1020.1 |
| 20260506224540 | 19 | 309 | 1.6 | 6.4 | 0.00 | 0.00 | 0.00 | 68 | 1020.1 |
| 20260506224024 | 18 | 356 | 0.0 | 4.8 | 0.00 | 0.00 | 0.00 | 69 | 1020.1 |
| 20260506223524 | 18 | 75 | 1.6 | 8.0 | 0.00 | 0.00 | 0.00 | 68 | 1020.2 |
| 20260506223101 | 18 | 296 | 1.6 | 9.7 | 0.00 | 0.00 | 0.00 | 70 | 1020.3 |
| 20260506222524 | 18 | 36 | 4.8 | 9.7 | 0.00 | 0.00 | 0.00 | 69 | 1020.3 |
| 20260506222024 | 19 | 44 | 4.8 | 9.7 | 0.00 | 0.00 | 0.00 | 67 | 1020.4 |
| 20260506221544 | 19 | 333 | 0.0 | 4.8 | 0.00 | 0.00 | 0.00 | 67 | 1020.3 |
| 20260506221025 | 19 | 266 | 0.0 | 3.2 | 0.00 | 0.00 | 0.00 | 65 | 1020.4 |
| 20260506220525 | 20 | 125 | 0.0 | 8.0 | 0.00 | 0.00 | 0.00 | 65 | 1020.4 |
| 20260506220043 | 19 | 195 | 1.6 | 8.0 | 0.00 | 0.00 | 0.00 | 66 | 1020.4 |
| 20260506215525 | 19 | 143 | 3.2 | 9.7 | 0.00 | 0.00 | 0.00 | 66 | 1020.3 |
| 20260506215024 | 19 | 248 | 3.2 | 9.7 | 0.00 | 0.00 | 0.00 | 66 | 1020.3 |
| 20260506214542 | 18 | 229 | 0.0 | 1.6 | 0.00 | 0.00 | 0.00 | 70 | 1020.4 |
| 20260506214025 | 18 | 123 | 0.0 | 8.0 | 0.00 | 0.00 | 0.00 | 71 | 1020.3 |
| 20260506213524 | 17 | 133 | 0.0 | 8.0 | 0.00 | 0.00 | 0.00 | 73 | 1020.4 |
| 20260506213039 | 17 | 335 | 1.6 | 8.0 | 0.00 | 0.00 | 0.00 | 72 | 1020.5 |
| 20260506212524 | 17 | 81 | 3.2 | 6.4 | 0.00 | 0.00 | 0.00 | 72 | 1020.5 |
| 20260506212026 | 17 | 0 | 1.6 | 6.4 | 0.00 | 0.00 | 0.00 | 74 | 1020.6 |
| 20260506211544 | 17 | 266 | 0.0 | 6.4 | 0.00 | 0.00 | 0.00 | 75 | 1020.7 |
| 20260506211024 | 17 | 322 | 0.0 | 6.4 | 0.00 | 0.00 | 0.00 | 75 | 1020.7 |
| 20260506210524 | 17 | 303 | 1.6 | 8.0 | 0.00 | 0.00 | 0.00 | 76 | 1020.8 |
| 20260506210041 | 16 | 50 | 3.2 | 8.0 | 0.00 | 0.00 | 0.00 | 76 | 1020.9 |
| 20260506205525 | 16 | 309 | 3.2 | 8.0 | 0.00 | 0.00 | 0.00 | 75 | 1020.8 |
| 20260506205024 | 16 | 29 | 1.6 | 8.0 | 0.00 | 0.00 | 0.00 | 76 | 1020.8 |
| 20260506204544 | 17 | 21 | 3.2 | 4.8 | 0.00 | 0.00 | 0.00 | 75 | 1020.8 |
| 20260506204025 | 17 | 0 | 3.2 | 4.8 | 0.00 | 0.00 | 0.00 | 75 | 1020.7 |
| 20260506203524 | 17 | 139 | 0.0 | 1.6 | 0.00 | 0.00 | 0.00 | 75 | 1020.7 |
| 20260506203046 | 16 | 290 | 0.0 | 6.4 | 0.00 | 0.00 | 0.00 | 77 | 1020.7 |
| 20260506202525 | 16 | 16 | 3.2 | 6.4 | 0.00 | 0.00 | 0.00 | 77 | 1020.8 |
| 20260506202027 | 16 | 4 | 0.0 | 6.4 | 0.00 | 0.00 | 0.00 | 78 | 1020.8 |
| 20260506201541 | 16 | 322 | 3.2 | 6.4 | 0.00 | 0.00 | 0.00 | 77 | 1020.8 |
| 20260506201025 | 16 | 3 | 1.6 | 4.8 | 0.00 | 0.00 | 0.00 | 77 | 1020.9 |
| 20260506200525 | 16 | 107 | 1.6 | 8.0 | 0.00 | 0.00 | 0.00 | 78 | 1020.9 |
| 20260506195525 | 16 | 23 | 1.6 | 9.7 | 0.00 | 0.00 | 0.00 | 79 | 1021.0 |
| 20260506195028 | 15 | 0 | 3.2 | 9.7 | 0.00 | 0.00 | 0.00 | 79 | 1021.0 |
| 20260506194546 | 15 | 302 | 3.2 | 8.0 | 0.00 | 0.00 | 0.00 | 78 | 1021.1 |
| 20260506194028 | 15 | 343 | 1.6 | 8.0 | 0.00 | 0.00 | 0.00 | 79 | 1021.2 |
| 20260506193526 | 15 | 330 | 1.6 | 8.0 | 0.00 | 0.00 | 0.00 | 79 | 1021.1 |
| 20260506193045 | 15 | 40 | 1.6 | 8.0 | 0.00 | 0.00 | 0.00 | 79 | 1021.2 |
| 20260506192525 | 15 | 103 | 3.2 | 9.7 | 0.00 | 0.00 | 0.00 | 78 | 1021.1 |
| 20260506192026 | 15 | 319 | 3.2 | 9.7 | 0.00 | 0.00 | 0.00 | 78 | 1021.1 |
| 20260506191541 | 15 | 317 | 0.0 | 6.4 | 0.00 | 0.00 | 0.00 | 78 | 1021.1 |
| 20260506191025 | 15 | 16 | 1.6 | 6.4 | 0.00 | 0.00 | 0.00 | 78 | 1020.9 |
| 20260506190528 | 15 | 307 | 1.6 | 6.4 | 0.00 | 0.00 | 0.00 | 78 | 1021.0 |
| 20260506190041 | 15 | 316 | 0.0 | 6.4 | 0.00 | 0.00 | 0.00 | 79 | 1021.1 |
| 20260506185523 | 15 | 198 | 1.6 | 4.8 | 0.00 | 0.00 | 0.00 | 78 | 1021.1 |
| 20260506185027 | 15 | 0 | 0.0 | 4.8 | 0.00 | 0.00 | 0.00 | 78 | 1020.9 |
| 20260506184536 | 15 | 211 | 1.6 | 4.8 | 0.00 | 0.00 | 0.00 | 79 | 1021.0 |
| 20260506184027 | 15 | 0 | 0.0 | 0.0 | 0.00 | 0.00 | 0.00 | 79 | 1020.9 |
| 20260506183527 | 15 | 0 | 0.0 | 1.6 | 0.00 | 0.00 | 0.00 | 79 | 1020.8 |
| 20260506183044 | 15 | 0 | 0.0 | 4.8 | 0.00 | 0.00 | 0.00 | 80 | 1020.8 |
| 20260506182526 | 15 | 293 | 1.6 | 4.8 | 0.00 | 0.00 | 0.00 | 80 | 1021.0 |
| 20260506182026 | 15 | 0 | 0.0 | 3.2 | 0.00 | 0.00 | 0.00 | 80 | 1021.0 |
| 20260506181543 | 15 | 0 | 0.0 | 3.2 | 0.00 | 0.00 | 0.00 | 80 | 1020.9 |
| 20260506181027 | 14 | 319 | 0.0 | 6.4 | 0.00 | 0.00 | 0.00 | 81 | 1020.9 |
| 20260506180529 | 14 | 350 | 1.6 | 6.4 | 0.00 | 0.00 | 0.00 | 81 | 1020.9 |
| 20260506180048 | 14 | 332 | 1.6 | 6.4 | 0.00 | 0.00 | 0.00 | 81 | 1020.9 |
| 20260506175529 | 14 | 0 | 1.6 | 4.8 | 0.00 | 0.00 | 0.00 | 80 | 1020.9 |
| 20260506175026 | 14 | 0 | 0.0 | 4.8 | 0.00 | 0.00 | 0.00 | 80 | 1021.0 |
| 20260506174541 | 14 | 238 | 1.6 | 6.4 | 0.00 | 0.00 | 0.00 | 80 | 1020.9 |
| 20260506174026 | 15 | 252 | 1.6 | 6.4 | 0.00 | 0.00 | 0.00 | 79 | 1020.8 |
| 20260506173525 | 15 | 283 | 0.0 | 3.2 | 0.00 | 0.00 | 0.00 | 80 | 1020.8 |
| 20260506173037 | 14 | 326 | 0.0 | 4.8 | 0.00 | 0.00 | 0.00 | 80 | 1020.6 |
| 20260506172526 | 14 | 0 | 0.0 | 4.8 | 0.00 | 0.00 | 0.00 | 80 | 1020.7 |
| 20260506172030 | 14 | 44 | 0.0 | 4.8 | 0.00 | 0.00 | 0.00 | 81 | 1020.7 |
| 20260506171551 | 14 | 0 | 0.0 | 4.8 | 0.00 | 0.00 | 0.00 | 81 | 1020.6 |
| 20260506171027 | 13 | 0 | 0.0 | 9.7 | 0.00 | 0.00 | 0.00 | 82 | 1020.6 |
| 20260506170526 | 13 | 341 | 4.8 | 9.7 | 0.00 | 0.00 | 0.00 | 82 | 1020.6 |
| 20260506170043 | 13 | 307 | 1.6 | 6.4 | 0.00 | 0.00 | 0.00 | 82 | 1020.7 |
| 20260506165527 | 13 | 72 | 1.6 | 6.4 | 0.00 | 0.00 | 0.00 | 82 | 1020.7 |
| 20260506165027 | 13 | 308 | 3.2 | 6.4 | 0.00 | 0.00 | 0.00 | 82 | 1020.6 |
| 20260506164542 | 13 | 340 | 3.2 | 6.4 | 0.00 | 0.00 | 0.00 | 82 | 1020.6 |
| 20260506164026 | 14 | 317 | 1.6 | 9.7 | 0.00 | 0.00 | 0.00 | 82 | 1020.5 |
| 20260506163526 | 13 | 51 | 3.2 | 9.7 | 0.00 | 0.00 | 0.00 | 83 | 1020.5 |
| 20260506163047 | 13 | 333 | 3.2 | 6.4 | 0.00 | 0.00 | 0.00 | 82 | 1020.6 |
| 20260506162526 | 13 | 327 | 1.6 | 6.4 | 0.00 | 0.00 | 0.00 | 82 | 1020.4 |
| 20260506162026 | 14 | 323 | 0.0 | 3.2 | 0.00 | 0.00 | 0.00 | 81 | 1020.4 |
| 20260506161553 | 14 | 205 | 0.0 | 4.8 | 0.00 | 0.00 | 0.00 | 82 | 1020.4 |
| 20260506161026 | 13 | 345 | 0.0 | 4.8 | 0.00 | 0.00 | 0.00 | 83 | 1020.3 |
| 20260506160531 | 13 | 300 | 3.2 | 4.8 | 0.00 | 0.00 | 0.00 | 83 | 1020.3 |
| 20260506160043 | 13 | 248 | 1.6 | 4.8 | 0.00 | 0.00 | 0.00 | 82 | 1020.1 |
| 20260506155525 | 13 | 233 | 0.0 | 4.8 | 0.00 | 0.00 | 0.00 | 82 | 1020.0 |
| 20260506155025 | 13 | 0 | 1.6 | 3.2 | 0.00 | 0.00 | 0.00 | 82 | 1020.0 |
| 20260506154545 | 13 | 0 | 0.0 | 1.6 | 0.00 | 0.00 | 0.00 | 85 | 1019.9 |
| 20260506154025 | 13 | 319 | 0.0 | 1.6 | 0.00 | 0.00 | 0.00 | 86 | 1019.9 |
| 20260506153525 | 12 | 0 | 0.0 | 4.8 | 0.00 | 0.00 | 0.00 | 85 | 1020.2 |
| 20260506153043 | 12 | 64 | 0.0 | 4.8 | 0.00 | 0.00 | 0.00 | 86 | 1020.6 |
| 20260506152525 | 12 | 0 | 1.6 | 8.0 | 0.00 | 0.00 | 0.00 | 86 | 1020.5 |
| 20260506152024 | 12 | 0 | 3.2 | 8.0 | 0.00 | 0.00 | 0.00 | 86 | 1020.6 |
| 20260506151548 | 12 | 323 | 3.2 | 8.0 | 0.00 | 0.00 | 0.00 | 86 | 1020.6 |
| 20260506151024 | 12 | 318 | 3.2 | 9.7 | 0.00 | 0.00 | 0.00 | 86 | 1020.6 |
| 20260506150524 | 12 | 345 | 4.8 | 9.7 | 0.00 | 0.00 | 0.00 | 86 | 1020.6 |
| 20260506150037 | 12 | 310 | 4.8 | 9.7 | 0.00 | 0.00 | 0.00 | 86 | 1020.5 |
| 20260506145525 | 12 | 314 | 3.2 | 9.7 | 0.00 | 0.00 | 0.00 | 86 | 1020.5 |
| 20260506145025 | 12 | 25 | 3.2 | 9.7 | 0.00 | 0.00 | 0.00 | 86 | 1020.2 |
| 20260506144541 | 12 | 323 | 4.8 | 9.7 | 0.00 | 0.00 | 0.00 | 86 | 1020.4 |
| 20260506144024 | 12 | 315 | 4.8 | 9.7 | 0.00 | 0.00 | 0.00 | 86 | 1020.3 |
| 20260506143525 | 12 | 345 | 3.2 | 9.7 | 0.00 | 0.00 | 0.00 | 86 | 1020.2 |
| 20260506143042 | 12 | 316 | 6.4 | 8.0 | 0.00 | 0.00 | 0.00 | 86 | 1020.1 |
| 20260506142524 | 12 | 295 | 3.2 | 8.0 | 0.00 | 0.00 | 0.00 | 86 | 1019.9 |
| 20260506142026 | 12 | 305 | 3.2 | 6.4 | 0.00 | 0.00 | 0.00 | 87 | 1019.8 |
| 20260506141541 | 12 | 322 | 1.6 | 6.4 | 0.00 | 0.00 | 0.00 | 86 | 1019.7 |
| 20260506141024 | 12 | 325 | 3.2 | 6.4 | 0.00 | 0.00 | 0.00 | 86 | 1019.7 |
| 20260506140524 | 12 | 335 | 3.2 | 6.4 | 0.00 | 0.00 | 0.00 | 86 | 1019.8 |
| 20260506140045 | 12 | 65 | 1.6 | 6.4 | 0.00 | 0.00 | 0.00 | 86 | 1019.8 |
| 20260506135526 | 12 | 313 | 1.6 | 6.4 | 0.00 | 0.00 | 0.00 | 86 | 1019.8 |
| 20260506135029 | 12 | 320 | 3.2 | 6.4 | 0.00 | 0.00 | 0.00 | 86 | 1019.7 |
| 20260506134609 | 13 | 296 | 0.0 | 4.8 | 0.00 | 0.00 | 0.00 | 86 | 1019.6 |
| 20260506134024 | 13 | 252 | 0.0 | 4.8 | 0.00 | 0.00 | 0.00 | 86 | 1019.6 |
| 20260506133526 | 13 | 328 | 0.0 | 3.2 | 0.00 | 0.00 | 0.00 | 86 | 1019.6 |
| 20260506133043 | 12 | 0 | 0.0 | 0.0 | 0.00 | 0.00 | 0.00 | 86 | 1019.5 |
| 20260506132525 | 12 | 0 | 0.0 | 0.0 | 0.00 | 0.00 | 0.00 | 86 | 1019.5 |
| 20260506132024 | 12 | 0 | 0.0 | 0.0 | 0.00 | 0.00 | 0.00 | 86 | 1019.4 |
| 20260506131600 | 12 | 0 | 0.0 | 0.0 | 0.00 | 0.00 | 0.00 | 86 | 1019.4 |
| 20260506131025 | 12 | 0 | 0.0 | 0.0 | 0.00 | 0.00 | 0.00 | 86 | 1019.3 |
| 20260506130528 | 12 | 0 | 0.0 | 0.0 | 0.00 | 0.00 | 0.00 | 86 | 1019.3 |
| 20260506130041 | 12 | 0 | 0.0 | 1.6 | 0.00 | 0.00 | 0.00 | 86 | 1019.3 |
| 20260506125525 | 12 | 0 | 0.0 | 1.6 | 0.00 | 0.00 | 0.00 | 86 | 1019.2 |
| 20260506125025 | 12 | 0 | 0.0 | 1.6 | 0.00 | 0.00 | 0.00 | 86 | 1019.1 |
| 20260506124541 | 12 | 0 | 0.0 | 1.6 | 0.00 | 0.00 | 0.00 | 86 | 1019.1 |
| 20260506124025 | 12 | 0 | 0.0 | 1.6 | 0.00 | 0.00 | 0.00 | 86 | 1019.1 |
| 20260506123525 | 12 | 245 | 0.0 | 3.2 | 0.00 | 0.00 | 0.00 | 86 | 1019.2 |
| 20260506123045 | 13 | 0 | 0.0 | 6.4 | 0.00 | 0.00 | 0.00 | 86 | 1019.1 |
| 20260506122524 | 13 | 301 | 1.6 | 6.4 | 0.00 | 0.00 | 0.00 | 85 | 1019.2 |
| 20260506122025 | 13 | 0 | 0.0 | 9.7 | 0.00 | 0.00 | 0.00 | 86 | 1019.1 |
| 20260506121545 | 13 | 0 | 3.2 | 9.7 | 0.00 | 0.00 | 0.00 | 85 | 1019.1 |
| 20260506121025 | 13 | 317 | 3.2 | 8.0 | 0.00 | 0.00 | 0.00 | 85 | 1019.3 |
| 20260506120525 | 13 | 304 | 1.6 | 6.4 | 0.00 | 0.00 | 0.00 | 85 | 1019.2 |
| 20260506120043 | 13 | 333 | 3.2 | 6.4 | 0.00 | 0.00 | 0.00 | 85 | 1019.2 |
| 20260506115525 | 13 | 299 | 1.6 | 6.4 | 0.00 | 0.00 | 0.00 | 85 | 1019.1 |
| 20260506115023 | 13 | 324 | 0.0 | 8.0 | 0.00 | 0.00 | 0.00 | 85 | 1019.0 |
| 20260506114547 | 13 | 324 | 3.2 | 8.0 | 0.00 | 0.00 | 0.00 | 85 | 1019.0 |
| 20260506114025 | 13 | 0 | 1.6 | 4.8 | 0.00 | 0.00 | 0.00 | 85 | 1018.9 |
| 20260506113524 | 13 | 230 | 0.0 | 6.4 | 0.00 | 0.00 | 0.00 | 85 | 1018.9 |
| 20260506113042 | 13 | 0 | 1.6 | 8.0 | 0.00 | 0.00 | 0.00 | 85 | 1018.8 |
| 20260506112524 | 13 | 305 | 3.2 | 8.0 | 0.00 | 0.00 | 0.00 | 85 | 1018.8 |
| 20260506112025 | 13 | 285 | 3.2 | 8.0 | 0.00 | 0.00 | 0.00 | 85 | 1018.7 |
| 20260506111542 | 13 | 346 | 3.2 | 6.4 | 0.00 | 0.00 | 0.00 | 85 | 1018.7 |
| 20260506111027 | 13 | 0 | 0.0 | 8.0 | 0.00 | 0.00 | 0.00 | 85 | 1018.7 |